FW0574 Weather Reports


time (UTC)temp
F
wind
direction
speed
knots
gust
knots
rain 1hr
in
rain 24hr
in
rain mn
in
humidity
%
barometer
mb
20260503193051 70 158 1.7 3.5 0.00 0.00 0.00 51 1008.0
20260503192549 69 158 1.7 3.5 0.00 0.00 0.00 53 1008.0
20260503192051 69 23 1.7 3.5 0.00 0.00 0.00 53 1008.0
20260503191549 70 113 1.7 3.5 0.00 0.00 0.00 50 1008.0
20260503191048 71 113 1.7 3.5 0.00 0.00 0.00 50 1008.3
20260503190050 71 135 1.7 5.2 0.00 0.00 0.00 50 1008.0
20260503185550 71 270 2.6 5.2 0.00 0.00 0.00 50 1008.0
20260503185051 72 338 1.7 6.1 0.00 0.00 0.00 50 1008.0
20260503184549 73 135 2.6 6.1 0.00 0.00 0.00 49 1008.0
20260503184048 71 225 1.7 4.3 0.00 0.00 0.00 50 1008.0
20260503183549 70 338 1.7 4.3 0.00 0.00 0.00 53 1008.0
20260503183050 70 270 1.7 4.3 0.00 0.00 0.00 53 1008.3
20260503182549 69 225 1.7 2.6 0.00 0.00 0.00 54 1008.3
20260503182047 0 0.0 0.0 0.00 0.00 0.00
20260503180742 69 90 1.7 0.0 0.00 0.00 0.00 56 1008.3
20260503175849 69 90 1.7 3.5 0.00 0.00 0.00 56 1008.3
20260503175347 67 113 1.7 2.6 0.00 0.00 0.00 60 1008.3
20260503174848 66 45 0.9 1.7 0.00 0.00 0.00 61 1008.3
20260503174348 65 270 0.9 3.5 0.00 0.00 0.00 63 1008.3
20260503173849 65 23 1.7 3.5 0.00 0.00 0.00 61 1008.3
20260503173347 64 68 0.9 2.6 0.00 0.00 0.00 63 1008.3
20260503172849 65 68 1.7 2.6 0.00 0.00 0.00 63 1008.3
20260503171837 66 45 1.7 3.5 0.00 0.00 0.00 63 1008.3
20260503170837 67 270 1.7 2.6 0.00 0.00 0.00 61 1008.3
20260503170339 67 45 0.9 2.6 0.00 0.00 0.00 63 1008.0
20260503150838 58 315 1.7 3.5 0.00 0.00 0.00 80 1007.7
20260503150339 58 293 1.7 4.3 0.00 0.00 0.00 81 1007.7
20260503131322 55 23 0.0 0.0 0.00 0.00 0.00 83 1006.6
20260503130821 55 23 0.0 0.9 0.00 0.00 0.00 83 1006.3
20260503130324 55 45 0.0 0.9 0.00 0.00 0.00 83 1006.3
20260503110755 56 315 0.0 0.9 0.00 0.00 0.00 81 1006.3
20260503110252 56 293 0.0 0.9 0.00 0.00 0.00 81 1006.3
20260503100234 56 270 0.0 1.7 0.00 0.00 0.00 81 1006.0
20260503090225 56 315 0.0 1.7 0.00 0.00 0.00 81 1006.0
20260503081223 56 315 0.9 1.7 0.00 0.00 0.00 81 1006.6
20260503080723 56 293 0.0 0.9 0.00 0.00 0.00 81 1006.6
20260503080223 56 270 0.0 1.7 0.00 0.00 0.00 81 1006.6
20260503072726 56 270 0.0 2.6 0.00 0.00 0.00 81 1007.0
20260503072224 56 270 0.9 1.7 0.00 0.00 0.00 81 1007.0
20260503071724 0 0.0 0.0 0.00 0.00 0.00
20260503060230 56 225 1.7 2.6 0.00 0.00 0.00 79 1007.0
20260503054728 56 0 1.7 3.5 0.00 0.00 0.00 79 1007.0
20260503053725 57 293 1.7 2.6 0.00 0.00 0.00 79 1007.3
20260503053228 57 270 1.7 3.5 0.00 0.00 0.00 79 1007.3
20260503051719 57 293 1.7 3.5 0.00 0.00 0.00 79 1007.3
20260503050217 57 270 1.7 3.5 0.00 0.00 0.00 79 1007.3
20260503045719 57 23 1.7 3.5 0.00 0.00 0.00 79 1007.0
20260503045214 57 248 1.7 4.3 0.00 0.00 0.00 79 1007.3
20260503044712 57 270 2.6 4.3 0.00 0.00 0.00 78 1007.3
20260503043715 57 315 0.9 2.6 0.00 0.00 0.00 78 1007.0
20260503042711 57 270 1.7 3.5 0.00 0.00 0.00 78 1007.0
20260503042211 57 293 1.7 5.2 0.00 0.00 0.00 78 1007.0
20260503041207 58 293 0.9 3.5 0.00 0.00 0.00 76 1007.0
20260503040709 58 293 0.0 4.3 0.00 0.00 0.00 76 1007.0
20260503035708 58 270 0.9 4.3 0.00 0.00 0.00 76 1006.6
20260503035204 58 270 1.7 4.3 0.00 0.00 0.00 76 1006.6
20260503033658 58 270 4.3 7.0 0.00 0.00 0.00 75 1006.3
20260503033158 58 270 2.6 4.3 0.00 0.00 0.00 75 1006.6
20260503032656 58 293 3.5 6.1 0.00 0.00 0.00 75 1006.3
20260503032157 58 270 3.5 6.1 0.00 0.00 0.00 75 1006.3
20260503031652 58 293 3.5 6.1 0.00 0.00 0.00 75 1006.3
20260503031152 58 270 3.5 6.1 0.00 0.00 0.00 75 1006.3
20260503030653 58 270 2.6 6.1 0.00 0.00 0.00 75 1006.3
20260503030151 59 293 1.7 4.3 0.00 0.00 0.00 75 1006.3
20260503025650 59 248 1.7 4.3 0.00 0.00 0.00 75 1006.3
20260503025151 59 315 1.7 3.5 0.00 0.00 0.00 75 1006.0
20260503024140 60 203 0.9 5.2 0.00 0.00 0.00 74 1006.0
20260503023642 60 293 3.5 7.0 0.00 0.00 0.00 74 1006.0
20260503022139 60 293 3.5 7.0 0.00 0.00 0.00 74 1005.6
20260503021639 60 315 2.6 6.1 0.00 0.00 0.00 73 1005.6
20260503021128 60 293 3.5 6.1 0.00 0.00 0.00 73 1005.6
20260503020630 61 270 3.5 7.8 0.00 0.00 0.00 73 1006.0
20260503020130 62 270 3.5 7.8 0.00 0.00 0.00 73 1005.6
20260503014627 62 293 3.5 6.1 0.00 0.00 0.00 73 1006.0
20260503013619 63 270 3.5 6.1 0.00 0.00 0.00 70 1006.0
20260503013117 63 270 3.5 6.1 0.00 0.00 0.00 70 1006.0
20260503012615 64 270 3.5 6.1 0.00 0.00 0.00 70 1006.0
20260503012115 65 293 2.6 6.1 0.00 0.00 0.00 69 1006.0
20260503011614 65 270 2.6 5.2 0.00 0.00 0.00 68 1006.0
20260503011114 65 270 2.6 7.0 0.00 0.00 0.00 68 1006.0
20260503010118 65 270 3.5 6.1 0.00 0.00 0.00 69 1005.6
20260503005613 65 293 5.2 7.0 0.00 0.00 0.00 68 1005.6
20260503005110 66 270 5.2 7.0 0.00 0.00 0.00 65 1006.0
20260503004612 67 270 2.6 7.0 0.00 0.00 0.00 65 1005.6
20260503004108 67 293 3.5 7.0 0.00 0.00 0.00 65 1005.6
20260503003607 67 248 3.5 6.1 0.00 0.00 0.00 65 1005.6
20260503003110 67 270 3.5 7.0 0.00 0.00 0.00 65 1006.0
20260503002605 67 270 4.3 7.8 0.00 0.00 0.00 65 1006.0
20260503001608 69 270 5.2 7.8 0.00 0.00 0.00 61 1006.0
20260503001106 69 203 5.2 7.0 0.00 0.00 0.00 59 1005.6
20260503000607 71 293 4.3 6.1 0.00 0.00 0.00 56 1006.0
20260503000105 73 225 1.7 6.1 0.00 0.00 0.00 56 1006.0
20260502235606 72 293 1.7 6.1 0.00 0.00 0.00 58 1006.0
20260502235106 71 248 3.5 7.8 0.00 0.00 0.00 58 1006.0
20260502234605 71 248 5.2 7.8 0.00 0.00 0.00 58 1006.0
20260502234101 74 338 3.5 7.0 0.00 0.00 0.00 55 1006.0
20260502233604 74 315 3.5 7.8 0.00 0.00 0.00 54 1006.0
20260502233057 74 315 3.5 7.8 0.00 0.00 0.00 54 1006.0
20260502232555 75 270 2.6 6.1 0.00 0.00 0.00 54 1006.0
20260502232054 75 68 1.7 4.3 0.00 0.00 0.00 54 1006.0
20260502231553 74 293 2.6 7.0 0.00 0.00 0.00 55 1006.0
20260502231050 74 270 4.3 7.0 0.00 0.00 0.00 55 1006.0
20260502230550 75 315 2.6 6.1 0.00 0.00 0.00 53 1006.3
20260502225547 77 270 1.7 7.0 0.00 0.00 0.00 51 1006.3
20260502225050 76 270 2.6 7.0 0.00 0.00 0.00 51 1006.3
20260502224047 78 0 2.6 5.2 0.00 0.00 0.00 50 1006.3
20260502223046 79 23 2.6 7.0 0.00 0.00 0.00 50 1006.6
20260502222548 79 225 1.7 2.6 0.00 0.00 0.00 50 1006.6
20260502222040 78 248 1.7 7.8 0.00 0.00 0.00 50 1006.6
20260502221536 77 270 3.5 7.8 0.00 0.00 0.00 53 1007.0
20260502221035 77 315 4.3 6.1 0.00 0.00 0.00 50 1007.0
20260502220537 78 180 2.6 6.1 0.00 0.00 0.00 50 1007.0
20260502220036 79 293 3.5 6.1 0.00 0.00 0.00 49 1007.0
20260502215535 80 293 1.7 5.2 0.00 0.00 0.00 48 1007.0
20260502215038 80 248 1.7 5.2 0.00 0.00 0.00 50 1007.3
20260502214534 79 203 1.7 4.3 0.00 0.00 0.00 48 1007.3
20260502214035 80 0 1.7 3.5 0.00 0.00 0.00 48 1007.3
20260502213531 79 338 1.7 6.1 0.00 0.00 0.00 49 1007.3
20260502213028 78 248 2.6 6.1 0.00 0.00 0.00 53 1007.3
20260502212531 78 293 2.6 6.1 0.00 0.00 0.00 50 1007.3
20260502212025 78 270 3.5 6.1 0.00 0.00 0.00 50 1007.3
20260502211527 80 248 2.6 6.1 0.00 0.00 0.00 49 1007.3
20260502211028 79 270 2.6 6.1 0.00 0.00 0.00 49 1007.3
20260502210528 79 293 2.6 4.3 0.00 0.00 0.00 48 1007.3
20260502210027 80 270 1.7 3.5 0.00 0.00 0.00 49 1007.3
20260502205530 79 270 1.7 4.3 0.00 0.00 0.00 49 1007.7
20260502205027 77 23 2.6 5.2 0.00 0.00 0.00 50 1007.7
20260502204526 79 338 2.6 4.3 0.00 0.00 0.00 48 1007.7
20260502203523 77 180 2.6 4.3 0.00 0.00 0.00 50 1007.7
20260502203023 77 135 1.7 3.5 0.00 0.00 0.00 50 1007.7
20260502202025 76 0 1.7 5.2 0.00 0.00 0.00 51 1008.0
20260502201522 76 225 2.6 5.2 0.00 0.00 0.00 51 1008.0
20260502201021 76 45 1.7 3.5 0.00 0.00 0.00 53 1008.0
20260502200525 75 315 2.6 3.5 0.00 0.00 0.00 54 1008.3
20260502200022 76 315 1.7 3.5 0.00 0.00 0.00 53 1008.3
20260502195521 75 270 1.7 3.5 0.00 0.00 0.00 55 1008.3
20260502194519 73 315 2.6 5.2 0.00 0.00 0.00 56 1008.7
20260502193515 74 293 2.6 5.2 0.00 0.00 0.00 55 1008.7